Flag for Norway Weather past 2 weeks in Haugesund, Norway

Now
52 °F

Partly cloudy.


Feels Like: 46 °F
Forecast: 51 / 53 °F
Wind: 22 mph from Southwest

Location: Haugesund / Karmoy

Current Time: Oct 25, 2014 at 1:23:20 AM

Latest Report: Oct 25, 2014 at 12:50 AM


Visibility: N/A

Pressure: 29.71 "Hg

Humidity: 82%

Dew point: 46 °F

Location of HaugesundLocation

Historic Weather in Haugesund — Graph

°F

Haugesund temperature yesterday

Maximum temperature yesterday: 55 °F (at 3:50 AM)
Minimum temperature yesterday: 50 °F (at 8:50 PM)
Average temperature yesterday: 54 °F

Past Weeks' High & Low Weather Summary

 TemperatureHumidityPressure
High57 °F (Oct 11, 2:20 PM)100% (Oct 12, 4:50 AM)29.98 "Hg (Oct 12, 4:50 AM)
Low34 °F (Oct 17, 8:50 AM)41% (Oct 16, 2:20 PM)29.15 "Hg (Oct 21, 3:20 PM)
Average51 °F82%29.72 "Hg
* Reported Oct 9 11:20 PM — Oct 24 11:50 PM, Haugesund, Weather by CustomWeather, © 2014

Note: Actual official high and low records may vary slightly from our data, if they occured in-between our weather recording intervals... More about our weather records

Advertising

Haugesund weather history for previous 24 hours

 ConditionsComfort  
Time TempWeatherWind HumidityBarometerVisibility
11:50 PM
Oct 24
52 °FSprinkles. Overcast.21 mph82%29.71 "HgN/A
11:20 PM50 °FSprinkles. Overcast.13 mph82%29.71 "HgN/A
10:50 PM50 °FSprinkles. Passing clouds.14 mph88%29.71 "HgN/A
10:20 PM50 °FLight rain. Passing clouds.10 mph88%29.71 "HgN/A
9:50 PM50 °FPassing clouds.9 mph88%29.71 "HgN/A
9:20 PM50 °FPassing clouds.10 mph88%29.71 "HgN/A
8:50 PM50 °FPartly cloudy.10 mph88%29.71 "HgN/A
8:20 PM52 °FPassing clouds.17 mph77%29.74 "HgN/A
7:50 PM52 °FLight rain. Passing clouds.20 mph88%29.74 "HgN/A
7:20 PM52 °FLight rain. Partly cloudy.17 mph82%29.74 "HgN/A
6:50 PM54 °FBroken clouds.15 mph77%29.74 "HgN/A
6:20 PM54 °FBroken clouds.21 mph77%29.74 "HgN/A
5:50 PM54 °FBroken clouds.20 mph82%29.74 "HgN/A
5:20 PM54 °FPartly sunny.23 mph82%29.71 "HgN/A
4:50 PM54 °FBroken clouds.20 mph88%29.71 "HgN/A
4:20 PM54 °FBroken clouds.18 mph88%29.71 "HgN/A
3:50 PM55 °FBroken clouds.18 mph82%29.71 "HgN/A
3:20 PM54 °FScattered showers. Partly sunny.17 mph94%29.74 "HgN/A
2:50 PM54 °FScattered showers. Partly sunny.13 mph94%29.74 "HgN/A
2:20 PM54 °FPartly sunny.12 mph94%29.74 "HgN/A
1:50 PM54 °FSprinkles. Partly sunny.10 mph94%29.74 "HgN/A
1:20 PM54 °FDrizzle. Cloudy.14 mph88%29.74 "Hg5 mi
12:50 PM54 °FLight rain. Broken clouds.16 mph94%29.74 "Hg4 mi
12:20 PM54 °FPartly sunny.17 mph94%29.74 "Hg6 mi
11:50 AM55 °FPartly sunny.18 mph88%29.74 "Hg6 mi
11:20 AM55 °FPartly sunny.17 mph88%29.71 "Hg5 mi
10:50 AM55 °FPartly sunny.17 mph88%29.71 "Hg6 mi
10:20 AM55 °FScattered showers. Partly sunny.17 mph94%29.71 "Hg6 mi
9:50 AM55 °FDrizzle. Mostly cloudy.17 mph94%29.71 "Hg4 mi
9:20 AM55 °FDrizzle. Mostly cloudy.20 mph94%29.71 "Hg4 mi
8:50 AM55 °FDrizzle. Fog.21 mph94%29.71 "Hg3 mi
8:20 AM55 °FDrizzle. Mostly cloudy.21 mph94%29.68 "Hg4 mi
7:50 AM55 °FScattered showers. Mostly cloudy.23 mph94%29.68 "Hg4 mi
7:20 AM55 °FLight rain. Mostly cloudy.20 mph94%29.68 "Hg4 mi
6:50 AM55 °FLight rain. Low clouds.20 mph94%29.68 "Hg2 mi
6:20 AM55 °FLight rain. Mostly cloudy.21 mph94%29.68 "Hg2 mi
5:50 AM55 °FLight rain. Mostly cloudy.20 mph94%29.68 "Hg1 mi
5:20 AM55 °FRain. Mostly cloudy.20 mph94%29.68 "Hg2 mi
4:50 AM55 °FLight rain. Low clouds.18 mph94%29.68 "Hg2 mi
4:20 AM55 °FLight rain. Low clouds.23 mph94%29.68 "Hg2 mi
3:50 AM55 °FRain. Low clouds.24 mph94%29.68 "Hg2 mi
3:20 AM54 °FRain. Low clouds.23 mph100%29.71 "Hg3 mi
2:50 AM54 °FLight rain. Low clouds.21 mph94%29.71 "Hg4 mi
2:20 AM54 °FLight rain. Mostly cloudy.20 mph94%29.71 "Hg2 mi
1:50 AM54 °FMostly cloudy.21 mph94%29.71 "HgN/A
1:20 AM54 °FMostly cloudy.18 mph94%29.71 "HgN/A
Weather by CustomWeather, © 2014

See weather overviewHow to use our weather pages